Simultaneous Nadir Overpasses (SNOs) Predictions

Prediction of SNOs between GOES-16 and METOP-C Satellite Orbit:

Table of predicted SNOs for the next 14.0 days since TLE Epoch: 3/9/2024
Index Date Time (GOES-16) GOES-16 Lat,Lon METOP-C Lat,Lon Distance(km) Time Diff (sec)
1 03/10/2024 02:31:54 -0.05, -75.19 -0.09, -75.24 7.07 80
2 03/12/2024 14:27:26 0.05, -75.23 -0.06, -74.82 47.33 80
3 03/14/2024 02:49:06 -0.05, -75.23 -1.00, -79.41 477.08 80
4 03/15/2024 02:25:46 -0.05, -75.24 0.12, -74.42 93.08 80
5 03/16/2024 14:47:18 0.04, -75.27 0.85, -78.99 422.65 80
6 03/17/2024 14:23:59 0.04, -75.29 -0.28, -74.00 147.86 80
7 03/19/2024 02:45:38 -0.04, -75.29 -0.76, -78.59 375.51 80
8 03/20/2024 02:22:19 -0.03, -75.31 0.37, -73.60 195.45 80
9 03/21/2024 14:41:10 0.03, -75.36 0.66, -78.15 319.03 80
10 03/22/2024 14:23:11 0.03, -75.38 -0.47, -73.16 252.57 80
